Regional Weather Roundup
Issued by NWS

Home | Current Version | Previous Version | Graphics & Text | Print | Product List | Glossary On
Versions: 1 2 3 4 5 6 7 8 9 10 11 12 13 14 15 16 17 18 19 20 21 22 23 24 25 26 27 28 29 30 31 32 33 34 35 36 37 38 39 40 41 42 43 44 45 46 47 48 49 50
000
ASUS45 KBOI 241710
RWRID
WEATHER ROUNDUP FOR IDAHO
NATIONAL WEATHER SERVICE BOISE ID
1100 AM MDT THU JUL 24 2014

NOTE: "FAIR" INDICATES FEW OR NO CLOUDS BELOW 12000 FEET
WITH NO SIGNIFICANT WEATHER AND/OR OBSTRUCTIONS TO VISIBILITY

IDZ012-014-241800-
SOUTHWEST IDAHO


CITY           SKY/WX    TMP DP  RH WIND       PRES   REMARKS
BOISE          SUNNY     65  36  34 NW15      30.22F
CALDWELL       SUNNY     63  36  36 NW12      30.25F
MOUNTAIN HOME  SUNNY     67  37  32 NW21G33   30.20R
$$

IDZ016-017-241800-
SOUTHCENTRAL IDAHO


CITY           SKY/WX    TMP DP  RH WIND       PRES   REMARKS
BURLEY         SUNNY     68  42  38 W18G28    30.18R
JEROME         SUNNY     68  40  35 SW25G32   30.19R
TWIN FALLS     SUNNY     69  38  32 W20G26    30.21R
$$

IDZ019>023-241800-
SOUTHEAST IDAHO


CITY           SKY/WX    TMP DP  RH WIND       PRES   REMARKS
IDAHO FALLS    SUNNY     73  46  38 SW22      30.12R
POCATELLO      SUNNY     73  45  36 SW25      30.14S
REXBURG        SUNNY     72  44  36 S16G26    30.11R
$$

IDZ006-010-011-018-031-032-241800-
CENTRAL IDAHO MOUNTAINS


CITY           SKY/WX    TMP DP  RH WIND       PRES   REMARKS
MCCALL         SUNNY     56  36  47 VRB6      30.20S
HAILEY         SUNNY     72  34  25 SW12      30.18R
STANLEY          N/A     60  30  32 W10G30    30.25R
SALMON         SUNNY     73  37  27 W16G26    29.98F
CHALLIS        SUNNY     72  26  18 SW18G28   30.11R
$$

IDZ002-004-006-007-026-241800-
NORTHERN IDAHO


CITY           SKY/WX    TMP DP  RH WIND       PRES   REMARKS
LEWISTON       SUNNY     66  40  38 VRB3      30.17S
LOWELL           N/A     62  46  55 CALM      30.21F
COEUR D`ALENE  CLOUDY    57  46  67 SW3G21    30.12R
MULLAN PASS    CLOUDY    39  34  82 VRB7G17   30.17R WCI  34
$$



USA.gov is the U.S. government's official web portal to all federal, state and local government web resources and services.